owner,sensor,date,latitude,longitude,vertical_datum,wind_speed,wind_to_direction,wind_speed_of_gust,qcFlag 
TCOON,ioos:station:TCOON:031:1,2016-02-01T00:00:00Z,28.4073,-96.7122,0.0,4.1,153.0,4.9,'11111222,11111222,11111222' 
TCOON,ioos:station:TCOON:031:1,2016-02-01T00:06:00Z,28.4073,-96.7122,0.0,3.7,160.0,4.6,'11111222,11111222,11111222' 
TCOON,ioos:station:TCOON:031:1,2016-02-01T00:12:00Z,28.4073,-96.7122,0.0,3.6,157.0,4.2,'11111222,11111222,11111222' 
TCOON,ioos:station:TCOON:031:1,2016-02-01T00:18:00Z,28.4073,-96.7122,0.0,3.2,158.0,4.1,'11111222,11111222,11111222' 
TCOON,ioos:station:TCOON:031:1,2016-02-01T00:24:00Z,28.4073,-96.7122,0.0,3.0,158.0,3.8,'11111222,11111222,11111222' 
TCOON,ioos:station:TCOON:031:1,2016-02-01T00:30:00Z,28.4073,-96.7122,0.0,3.0,155.0,3.6,'11111222,11111222,11111222' 
TCOON,ioos:station:TCOON:031:1,2016-02-01T00:36:00Z,28.4073,-96.7122,0.0,3.4,152.0,3.8,'11111222,11111222,11111222' 
TCOON,ioos:station:TCOON:031:1,2016-02-01T00:42:00Z,28.4073,-96.7122,0.0,3.7,147.0,4.6,'11111222,11111222,11111222' 
TCOON,ioos:station:TCOON:031:1,2016-02-01T00:48:00Z,28.4073,-96.7122,0.0,3.7,148.0,4.6,'11111222,11111222,11111222' 
TCOON,ioos:station:TCOON:031:1,2016-02-01T00:54:00Z,28.4073,-96.7122,0.0,3.3,143.0,4.3,'11111222,11111222,11111222' 
TCOON,ioos:station:TCOON:031:1,2016-02-01T01:00:00Z,28.4073,-96.7122,0.0,3.4,142.0,4.2,'11111222,11111222,11111222' 
TCOON,ioos:station:TCOON:031:1,2016-02-01T01:06:00Z,28.4073,-96.7122,0.0,3.2,142.0,4.0,'11111222,11111222,11111222' 
TCOON,ioos:station:TCOON:031:1,2016-02-01T01:12:00Z,28.4073,-96.7122,0.0,3.7,140.0,4.4,'11111222,11111222,11111222' 
TCOON,ioos:station:TCOON:031:1,2016-02-01T01:18:00Z,28.4073,-96.7122,0.0,3.3,143.0,4.1,'11111222,11111222,11111222' 
TCOON,ioos:station:TCOON:031:1,2016-02-01T01:24:00Z,28.4073,-96.7122,0.0,3.3,142.0,3.9,'11111222,11111222,11111222' 
TCOON,ioos:station:TCOON:031:1,2016-02-01T01:30:00Z,28.4073,-96.7122,0.0,3.7,144.0,4.4,'11111222,11111222,11111222' 
TCOON,ioos:station:TCOON:031:1,2016-02-01T01:36:00Z,28.4073,-96.7122,0.0,3.7,139.0,5.1,'11111222,11111222,11111222' 
TCOON,ioos:station:TCOON:031:1,2016-02-01T01:42:00Z,28.4073,-96.7122,0.0,4.1,138.0,4.9,'11111222,11111222,11111222' 
TCOON,ioos:station:TCOON:031:1,2016-02-01T01:48:00Z,28.4073,-96.7122,0.0,4.0,135.0,5.2,'11111222,11111222,11111222' 
TCOON,ioos:station:TCOON:031:1,2016-02-01T01:54:00Z,28.4073,-96.7122,0.0,3.9,135.0,4.7,'11111222,11111222,11111222' 
TCOON,ioos:station:TCOON:031:1,2016-02-01T02:00:00Z,28.4073,-96.7122,0.0,4.6,142.0,6.0,'11111222,11111222,11111222' 
TCOON,ioos:station:TCOON:031:1,2016-02-01T02:06:00Z,28.4073,-96.7122,0.0,4.2,142.0,5.6,'11111222,11111222,11111222' 
TCOON,ioos:station:TCOON:031:1,2016-02-01T02:12:00Z,28.4073,-96.7122,0.0,4.0,138.0,4.9,'11111222,11111222,11111222' 
TCOON,ioos:station:TCOON:031:1,2016-02-01T02:18:00Z,28.4073,-96.7122,0.0,3.6,138.0,4.6,'11111222,11111222,11111222' 
TCOON,ioos:station:TCOON:031:1,2016-02-01T02:24:00Z,28.4073,-96.7122,0.0,4.0,144.0,5.3,'11111222,11111222,11111222' 
TCOON,ioos:station:TCOON:031:1,2016-02-01T02:30:00Z,28.4073,-96.7122,0.0,4.8,142.0,5.9,'11111222,11111222,11111222' 
TCOON,ioos:station:TCOON:031:1,2016-02-01T02:36:00Z,28.4073,-96.7122,0.0,4.7,142.0,5.7,'11111222,11111222,11111222' 
TCOON,ioos:station:TCOON:031:1,2016-02-01T02:42:00Z,28.4073,-96.7122,0.0,5.1,142.0,6.2,'11111222,11111222,11111222' 
TCOON,ioos:station:TCOON:031:1,2016-02-01T02:48:00Z,28.4073,-96.7122,0.0,4.7,141.0,6.0,'11111222,11111222,11111222' 
TCOON,ioos:station:TCOON:031:1,2016-02-01T02:54:00Z,28.4073,-96.7122,0.0,4.5,139.0,5.8,'11111222,11111222,11111222' 
TCOON,ioos:station:TCOON:031:1,2016-02-01T03:00:00Z,28.4073,-96.7122,0.0,4.1,136.0,5.2,'11111222,11111222,11111222' 
TCOON,ioos:station:TCOON:031:1,2016-02-01T03:06:00Z,28.4073,-96.7122,0.0,4.0,137.0,5.1,'11111222,11111222,11111222' 
TCOON,ioos:station:TCOON:031:1,2016-02-01T03:12:00Z,28.4073,-96.7122,0.0,4.2,138.0,4.9,'11111222,11111222,11111222' 
TCOON,ioos:station:TCOON:031:1,2016-02-01T03:18:00Z,28.4073,-96.7122,0.0,4.4,135.0,5.1,'11111222,11111222,11111222' 
TCOON,ioos:station:TCOON:031:1,2016-02-01T03:24:00Z,28.4073,-96.7122,0.0,5.0,139.0,6.0,'11111222,11111222,11111222' 
TCOON,ioos:station:TCOON:031:1,2016-02-01T03:30:00Z,28.4073,-96.7122,0.0,4.7,139.0,5.6,'11111222,11111222,11111222' 
TCOON,ioos:station:TCOON:031:1,2016-02-01T03:36:00Z,28.4073,-96.7122,0.0,4.8,144.0,5.7,'11111222,11111222,11111222' 
TCOON,ioos:station:TCOON:031:1,2016-02-01T03:42:00Z,28.4073,-96.7122,0.0,5.0,145.0,6.0,'11111222,11111222,11111222' 
TCOON,ioos:station:TCOON:031:1,2016-02-01T03:48:00Z,28.4073,-96.7122,0.0,4.7,146.0,5.9,'11111222,11111222,11111222' 
TCOON,ioos:station:TCOON:031:1,2016-02-01T03:54:00Z,28.4073,-96.7122,0.0,4.8,147.0,6.1,'11111222,11111222,11111222' 
TCOON,ioos:station:TCOON:031:1,2016-02-01T04:00:00Z,28.4073,-96.7122,0.0,4.5,145.0,6.1,'11111222,11111222,11111222' 
TCOON,ioos:station:TCOON:031:1,2016-02-01T04:06:00Z,28.4073,-96.7122,0.0,5.1,146.0,5.8,'11111222,11111222,11111222' 
TCOON,ioos:station:TCOON:031:1,2016-02-01T04:12:00Z,28.4073,-96.7122,0.0,5.4,144.0,6.3,'11111222,11111222,11111222' 
TCOON,ioos:station:TCOON:031:1,2016-02-01T04:18:00Z,28.4073,-96.7122,0.0,4.8,146.0,6.6,'11111222,11111222,11111222' 
TCOON,ioos:station:TCOON:031:1,2016-02-01T04:24:00Z,28.4073,-96.7122,0.0,5.0,149.0,6.1,'11111222,11111222,11111222' 
TCOON,ioos:station:TCOON:031:1,2016-02-01T04:30:00Z,28.4073,-96.7122,0.0,4.8,147.0,6.1,'11111222,11111222,11111222' 
TCOON,ioos:station:TCOON:031:1,2016-02-01T04:36:00Z,28.4073,-96.7122,0.0,5.2,146.0,6.2,'11111222,11111222,11111222' 
TCOON,ioos:station:TCOON:031:1,2016-02-01T04:42:00Z,28.4073,-96.7122,0.0,5.4,148.0,6.4,'11111222,11111222,11111222' 
TCOON,ioos:station:TCOON:031:1,2016-02-01T04:48:00Z,28.4073,-96.7122,0.0,5.3,148.0,6.5,'11111222,11111222,11111222' 
TCOON,ioos:station:TCOON:031:1,2016-02-01T04:54:00Z,28.4073,-96.7122,0.0,4.9,153.0,6.4,'11111222,11111222,11111222' 
TCOON,ioos:station:TCOON:031:1,2016-02-01T05:00:00Z,28.4073,-96.7122,0.0,4.6,150.0,5.9,'11111222,11111222,11111222' 
TCOON,ioos:station:TCOON:031:1,2016-02-01T05:06:00Z,28.4073,-96.7122,0.0,4.5,153.0,5.4,'11111222,11111222,11111222' 
TCOON,ioos:station:TCOON:031:1,2016-02-01T05:12:00Z,28.4073,-96.7122,0.0,4.0,152.0,5.5,'11111222,11111222,11111222' 
TCOON,ioos:station:TCOON:031:1,2016-02-01T05:18:00Z,28.4073,-96.7122,0.0,4.0,157.0,5.1,'11111222,11111222,11111222' 
TCOON,ioos:station:TCOON:031:1,2016-02-01T05:24:00Z,28.4073,-96.7122,0.0,3.6,160.0,4.4,'11111222,11111222,11111222' 
TCOON,ioos:station:TCOON:031:1,2016-02-01T05:30:00Z,28.4073,-96.7122,0.0,3.6,159.0,4.2,'11111222,11111222,11111222' 
TCOON,ioos:station:TCOON:031:1,2016-02-01T05:36:00Z,28.4073,-96.7122,0.0,3.3,162.0,4.4,'11111222,11111222,11111222' 
TCOON,ioos:station:TCOON:031:1,2016-02-01T05:42:00Z,28.4073,-96.7122,0.0,3.4,159.0,3.8,'11111222,11111222,11111222' 
TCOON,ioos:station:TCOON:031:1,2016-02-01T05:48:00Z,28.4073,-96.7122,0.0,3.5,159.0,3.9,'11111222,11111222,11111222' 
TCOON,ioos:station:TCOON:031:1,2016-02-01T05:54:00Z,28.4073,-96.7122,0.0,3.4,159.0,4.3,'11111222,11111222,11111222' 
TCOON,ioos:station:TCOON:031:1,2016-02-01T06:00:00Z,28.4073,-96.7122,0.0,3.5,161.0,3.9,'11111222,11111222,11111222' 
TCOON,ioos:station:TCOON:031:1,2016-02-01T06:06:00Z,28.4073,-96.7122,0.0,3.5,162.0,3.9,'11111222,11111222,11111222' 
TCOON,ioos:station:TCOON:031:1,2016-02-01T06:12:00Z,28.4073,-96.7122,0.0,3.1,160.0,4.0,'11111222,11111222,11111222' 
TCOON,ioos:station:TCOON:031:1,2016-02-01T06:18:00Z,28.4073,-96.7122,0.0,3.6,158.0,4.2,'11111222,11111222,11111222' 
TCOON,ioos:station:TCOON:031:1,2016-02-01T06:24:00Z,28.4073,-96.7122,0.0,3.6,160.0,4.5,'11111222,11111222,11111222' 
TCOON,ioos:station:TCOON:031:1,2016-02-01T06:30:00Z,28.4073,-96.7122,0.0,4.1,159.0,4.6,'11111222,11111222,11111222' 
TCOON,ioos:station:TCOON:031:1,2016-02-01T06:36:00Z,28.4073,-96.7122,0.0,3.7,158.0,4.5,'11111222,11111222,11111222' 
TCOON,ioos:station:TCOON:031:1,2016-02-01T06:42:00Z,28.4073,-96.7122,0.0,3.4,155.0,4.1,'11111222,11111222,11111222' 
TCOON,ioos:station:TCOON:031:1,2016-02-01T06:48:00Z,28.4073,-96.7122,0.0,3.5,160.0,4.1,'11111222,11111222,11111222' 
TCOON,ioos:station:TCOON:031:1,2016-02-01T06:54:00Z,28.4073,-96.7122,0.0,3.1,163.0,3.8,'11111222,11111222,11111222' 
TCOON,ioos:station:TCOON:031:1,2016-02-01T07:00:00Z,28.4073,-96.7122,0.0,2.7,158.0,3.3,'11111222,11111222,11111222' 
TCOON,ioos:station:TCOON:031:1,2016-02-01T07:06:00Z,28.4073,-96.7122,0.0,2.8,157.0,3.3,'11111222,11111222,11111222' 
TCOON,ioos:station:TCOON:031:1,2016-02-01T07:12:00Z,28.4073,-96.7122,0.0,2.9,166.0,3.9,'11111222,11111222,11111222' 
TCOON,ioos:station:TCOON:031:1,2016-02-01T07:18:00Z,28.4073,-96.7122,0.0,3.8,171.0,4.7,'11111222,11111222,11111222' 
TCOON,ioos:station:TCOON:031:1,2016-02-01T07:24:00Z,28.4073,-96.7122,0.0,4.0,174.0,4.8,'11111222,11111222,11111222' 
TCOON,ioos:station:TCOON:031:1,2016-02-01T07:30:00Z,28.4073,-96.7122,0.0,3.5,175.0,4.6,'11111222,11111222,11111222' 
TCOON,ioos:station:TCOON:031:1,2016-02-01T07:36:00Z,28.4073,-96.7122,0.0,3.2,179.0,4.5,'11111222,11111222,11111222' 
TCOON,ioos:station:TCOON:031:1,2016-02-01T07:42:00Z,28.4073,-96.7122,0.0,2.4,180.0,3.6,'11111222,11111222,11111222' 
TCOON,ioos:station:TCOON:031:1,2016-02-01T07:48:00Z,28.4073,-96.7122,0.0,2.1,184.0,2.6,'11111222,11111222,11111222' 
TCOON,ioos:station:TCOON:031:1,2016-02-01T07:54:00Z,28.4073,-96.7122,0.0,1.8,184.0,2.4,'11111222,11111222,11111222' 
TCOON,ioos:station:TCOON:031:1,2016-02-01T08:00:00Z,28.4073,-96.7122,0.0,1.7,172.0,2.0,'11111222,11111222,11111222' 
TCOON,ioos:station:TCOON:031:1,2016-02-01T08:06:00Z,28.4073,-96.7122,0.0,1.9,175.0,2.0,'11111222,11111222,11111222' 
TCOON,ioos:station:TCOON:031:1,2016-02-01T08:12:00Z,28.4073,-96.7122,0.0,3.2,173.0,4.8,'11111222,11111222,11111222' 
TCOON,ioos:station:TCOON:031:1,2016-02-01T08:18:00Z,28.4073,-96.7122,0.0,4.4,178.0,5.4,'11111222,11111222,11111222' 
TCOON,ioos:station:TCOON:031:1,2016-02-01T08:24:00Z,28.4073,-96.7122,0.0,4.0,178.0,5.7,'11111222,11111222,11111222' 
TCOON,ioos:station:TCOON:031:1,2016-02-01T08:30:00Z,28.4073,-96.7122,0.0,3.3,178.0,4.2,'11111222,11111222,11111222' 
TCOON,ioos:station:TCOON:031:1,2016-02-01T08:36:00Z,28.4073,-96.7122,0.0,2.8,171.0,3.4,'11111222,11111222,11111222' 
TCOON,ioos:station:TCOON:031:1,2016-02-01T08:42:00Z,28.4073,-96.7122,0.0,2.7,165.0,3.1,'11111222,11111222,11111222' 
TCOON,ioos:station:TCOON:031:1,2016-02-01T08:48:00Z,28.4073,-96.7122,0.0,4.7,172.0,6.7,'11111222,11111222,11111222' 
TCOON,ioos:station:TCOON:031:1,2016-02-01T08:54:00Z,28.4073,-96.7122,0.0,4.2,179.0,6.8,'11111222,11111222,11111222' 
TCOON,ioos:station:TCOON:031:1,2016-02-01T09:00:00Z,28.4073,-96.7122,0.0,4.5,180.0,5.2,'11111222,11111222,11111222' 
TCOON,ioos:station:TCOON:031:1,2016-02-01T09:06:00Z,28.4073,-96.7122,0.0,5.3,178.0,6.5,'11111222,11111222,11111222' 
TCOON,ioos:station:TCOON:031:1,2016-02-01T09:12:00Z,28.4073,-96.7122,0.0,4.4,168.0,5.8,'11111222,11111222,11111222' 
TCOON,ioos:station:TCOON:031:1,2016-02-01T09:18:00Z,28.4073,-96.7122,0.0,5.6,175.0,6.4,'11111222,11111222,11111222' 
TCOON,ioos:station:TCOON:031:1,2016-02-01T09:24:00Z,28.4073,-96.7122,0.0,4.9,171.0,6.3,'11111222,11111222,11111222' 
TCOON,ioos:station:TCOON:031:1,2016-02-01T09:30:00Z,28.4073,-96.7122,0.0,5.5,170.0,6.3,'11111222,11111222,11111222' 
TCOON,ioos:station:TCOON:031:1,2016-02-01T09:36:00Z,28.4073,-96.7122,0.0,99.0,-9999.0,99.0,'11144222,99999999,11144222' 
TCOON,ioos:station:TCOON:031:1,2016-02-01T09:42:00Z,28.4073,-96.7122,0.0,99.0,-9999.0,99.0,'11144222,99999999,11144222' 
TCOON,ioos:station:TCOON:031:1,2016-02-01T09:48:00Z,28.4073,-96.7122,0.0,99.0,-9999.0,99.0,'11144222,99999999,11144222' 
TCOON,ioos:station:TCOON:031:1,2016-02-01T09:54:00Z,28.4073,-96.7122,0.0,99.0,-9999.0,99.0,'11144222,99999999,11144222' 
TCOON,ioos:station:TCOON:031:1,2016-02-01T10:00:00Z,28.4073,-96.7122,0.0,99.0,-9999.0,99.0,'11144222,99999999,11144222' 
TCOON,ioos:station:TCOON:031:1,2016-02-01T10:06:00Z,28.4073,-96.7122,0.0,5.9,179.0,7.2,'11111222,11111222,11111222' 
TCOON,ioos:station:TCOON:031:1,2016-02-01T10:12:00Z,28.4073,-96.7122,0.0,5.4,182.0,6.7,'11111222,11111222,11111222' 
TCOON,ioos:station:TCOON:031:1,2016-02-01T10:18:00Z,28.4073,-96.7122,0.0,5.5,179.0,6.6,'11111222,11111222,11111222' 
TCOON,ioos:station:TCOON:031:1,2016-02-01T10:24:00Z,28.4073,-96.7122,0.0,5.1,181.0,5.8,'11111222,11111222,11111222' 
TCOON,ioos:station:TCOON:031:1,2016-02-01T10:30:00Z,28.4073,-96.7122,0.0,4.5,180.0,5.4,'11111222,11111222,11111222' 
TCOON,ioos:station:TCOON:031:1,2016-02-01T10:36:00Z,28.4073,-96.7122,0.0,4.1,178.0,5.0,'11111222,11111222,11111222' 
TCOON,ioos:station:TCOON:031:1,2016-02-01T10:42:00Z,28.4073,-96.7122,0.0,3.9,172.0,4.7,'11111222,11111222,11111222' 
TCOON,ioos:station:TCOON:031:1,2016-02-01T10:48:00Z,28.4073,-96.7122,0.0,3.9,180.0,4.5,'11111222,11111222,11111222' 
TCOON,ioos:station:TCOON:031:1,2016-02-01T10:54:00Z,28.4073,-96.7122,0.0,5.1,177.0,5.9,'11111222,11111222,11111222' 
TCOON,ioos:station:TCOON:031:1,2016-02-01T11:00:00Z,28.4073,-96.7122,0.0,4.9,181.0,6.2,'11111222,11111222,11111222' 
TCOON,ioos:station:TCOON:031:1,2016-02-01T11:06:00Z,28.4073,-96.7122,0.0,5.1,181.0,5.8,'11111222,11111222,11111222' 
TCOON,ioos:station:TCOON:031:1,2016-02-01T11:12:00Z,28.4073,-96.7122,0.0,5.7,182.0,6.6,'11111222,11111222,11111222' 
TCOON,ioos:station:TCOON:031:1,2016-02-01T11:18:00Z,28.4073,-96.7122,0.0,5.6,179.0,7.0,'11111222,11111222,11111222' 
TCOON,ioos:station:TCOON:031:1,2016-02-01T11:24:00Z,28.4073,-96.7122,0.0,5.9,175.0,7.3,'11111222,11111222,11111222' 
TCOON,ioos:station:TCOON:031:1,2016-02-01T11:30:00Z,28.4073,-96.7122,0.0,4.9,169.0,6.2,'11111222,11111222,11111222' 
TCOON,ioos:station:TCOON:031:1,2016-02-01T11:36:00Z,28.4073,-96.7122,0.0,4.9,168.0,6.2,'11111222,11111222,11111222' 
TCOON,ioos:station:TCOON:031:1,2016-02-01T11:42:00Z,28.4073,-96.7122,0.0,4.7,166.0,5.7,'11111222,11111222,11111222' 
TCOON,ioos:station:TCOON:031:1,2016-02-01T11:48:00Z,28.4073,-96.7122,0.0,4.8,156.0,6.9,'11111222,11111222,11111222' 
TCOON,ioos:station:TCOON:031:1,2016-02-01T11:54:00Z,28.4073,-96.7122,0.0,5.2,159.0,6.0,'11111222,11111222,11111222' 
TCOON,ioos:station:TCOON:031:1,2016-02-01T12:00:00Z,28.4073,-96.7122,0.0,5.7,157.0,6.7,'11111222,11111222,11111222' 
TCOON,ioos:station:TCOON:031:1,2016-02-01T12:06:00Z,28.4073,-96.7122,0.0,6.9,153.0,8.2,'11111222,11111222,11111222' 
TCOON,ioos:station:TCOON:031:1,2016-02-01T12:12:00Z,28.4073,-96.7122,0.0,6.4,152.0,8.5,'11111222,11111222,11111222' 
TCOON,ioos:station:TCOON:031:1,2016-02-01T12:18:00Z,28.4073,-96.7122,0.0,6.2,157.0,7.3,'11111222,11111222,11111222' 
TCOON,ioos:station:TCOON:031:1,2016-02-01T12:24:00Z,28.4073,-96.7122,0.0,7.1,159.0,8.1,'11111222,11111222,11111222' 
TCOON,ioos:station:TCOON:031:1,2016-02-01T12:30:00Z,28.4073,-96.7122,0.0,6.5,158.0,8.2,'11111222,11111222,11111222' 
TCOON,ioos:station:TCOON:031:1,2016-02-01T12:36:00Z,28.4073,-96.7122,0.0,6.2,157.0,7.7,'11111222,11111222,11111222' 
TCOON,ioos:station:TCOON:031:1,2016-02-01T12:42:00Z,28.4073,-96.7122,0.0,6.0,162.0,6.8,'11111222,11111222,11111222' 
TCOON,ioos:station:TCOON:031:1,2016-02-01T12:48:00Z,28.4073,-96.7122,0.0,6.4,166.0,7.1,'11111222,11111222,11111222' 
TCOON,ioos:station:TCOON:031:1,2016-02-01T12:54:00Z,28.4073,-96.7122,0.0,5.2,170.0,7.7,'11111222,11111222,11111222' 
TCOON,ioos:station:TCOON:031:1,2016-02-01T13:00:00Z,28.4073,-96.7122,0.0,4.1,167.0,5.7,'11111222,11111222,11111222' 
TCOON,ioos:station:TCOON:031:1,2016-02-01T13:06:00Z,28.4073,-96.7122,0.0,5.1,161.0,5.6,'11111222,11111222,11111222' 
TCOON,ioos:station:TCOON:031:1,2016-02-01T13:12:00Z,28.4073,-96.7122,0.0,5.2,164.0,5.8,'11111222,11111222,11111222' 
TCOON,ioos:station:TCOON:031:1,2016-02-01T13:18:00Z,28.4073,-96.7122,0.0,5.2,165.0,6.2,'11111222,11111222,11111222' 
TCOON,ioos:station:TCOON:031:1,2016-02-01T13:24:00Z,28.4073,-96.7122,0.0,5.3,162.0,6.6,'11111222,11111222,11111222' 
TCOON,ioos:station:TCOON:031:1,2016-02-01T13:30:00Z,28.4073,-96.7122,0.0,5.8,170.0,7.0,'11111222,11111222,11111222' 
TCOON,ioos:station:TCOON:031:1,2016-02-01T13:36:00Z,28.4073,-96.7122,0.0,5.8,171.0,6.7,'11111222,11111222,11111222' 
TCOON,ioos:station:TCOON:031:1,2016-02-01T13:42:00Z,28.4073,-96.7122,0.0,5.4,169.0,6.1,'11111222,11111222,11111222' 
TCOON,ioos:station:TCOON:031:1,2016-02-01T13:48:00Z,28.4073,-96.7122,0.0,5.2,172.0,6.5,'11111222,11111222,11111222' 
TCOON,ioos:station:TCOON:031:1,2016-02-01T13:54:00Z,28.4073,-96.7122,0.0,4.8,167.0,6.2,'11111222,11111222,11111222' 
TCOON,ioos:station:TCOON:031:1,2016-02-01T14:00:00Z,28.4073,-96.7122,0.0,4.3,159.0,5.5,'11111222,11111222,11111222' 
TCOON,ioos:station:TCOON:031:1,2016-02-01T14:06:00Z,28.4073,-96.7122,0.0,4.6,161.0,5.4,'11111222,11111222,11111222' 
TCOON,ioos:station:TCOON:031:1,2016-02-01T14:12:00Z,28.4073,-96.7122,0.0,4.4,157.0,5.4,'11111222,11111222,11111222' 
TCOON,ioos:station:TCOON:031:1,2016-02-01T14:18:00Z,28.4073,-96.7122,0.0,4.4,149.0,5.1,'11111222,11111222,11111222' 
TCOON,ioos:station:TCOON:031:1,2016-02-01T14:24:00Z,28.4073,-96.7122,0.0,4.8,152.0,5.7,'11111222,11111222,11111222' 
TCOON,ioos:station:TCOON:031:1,2016-02-01T14:30:00Z,28.4073,-96.7122,0.0,4.9,154.0,5.9,'11111222,11111222,11111222' 
TCOON,ioos:station:TCOON:031:1,2016-02-01T14:36:00Z,28.4073,-96.7122,0.0,4.7,156.0,5.9,'11111222,11111222,11111222' 
TCOON,ioos:station:TCOON:031:1,2016-02-01T14:42:00Z,28.4073,-96.7122,0.0,4.9,160.0,5.7,'11111222,11111222,11111222' 
TCOON,ioos:station:TCOON:031:1,2016-02-01T14:48:00Z,28.4073,-96.7122,0.0,4.7,161.0,5.9,'11111222,11111222,11111222' 
TCOON,ioos:station:TCOON:031:1,2016-02-01T14:54:00Z,28.4073,-96.7122,0.0,4.4,155.0,5.3,'11111222,11111222,11111222' 
TCOON,ioos:station:TCOON:031:1,2016-02-01T15:00:00Z,28.4073,-96.7122,0.0,3.9,153.0,5.4,'11111222,11111222,11111222' 
TCOON,ioos:station:TCOON:031:1,2016-02-01T15:06:00Z,28.4073,-96.7122,0.0,4.2,149.0,4.7,'11111222,11111222,11111222' 
TCOON,ioos:station:TCOON:031:1,2016-02-01T15:12:00Z,28.4073,-96.7122,0.0,4.3,148.0,5.2,'11111222,11111222,11111222' 
TCOON,ioos:station:TCOON:031:1,2016-02-01T15:18:00Z,28.4073,-96.7122,0.0,4.4,155.0,5.2,'11111222,11111222,11111222' 
TCOON,ioos:station:TCOON:031:1,2016-02-01T15:24:00Z,28.4073,-96.7122,0.0,4.6,158.0,5.7,'11111222,11111222,11111222' 
TCOON,ioos:station:TCOON:031:1,2016-02-01T15:30:00Z,28.4073,-96.7122,0.0,4.9,157.0,5.7,'11111222,11111222,11111222' 
TCOON,ioos:station:TCOON:031:1,2016-02-01T15:36:00Z,28.4073,-96.7122,0.0,4.7,152.0,6.0,'11111222,11111222,11111222' 
TCOON,ioos:station:TCOON:031:1,2016-02-01T15:42:00Z,28.4073,-96.7122,0.0,4.7,152.0,6.0,'1111122,1111122,1111122' 
TCOON,ioos:station:TCOON:031:1,2016-02-01T15:48:00Z,28.4073,-96.7122,0.0,4.7,148.0,5.6,'11111222,11111222,11111222' 
TCOON,ioos:station:TCOON:031:1,2016-02-01T15:54:00Z,28.4073,-96.7122,0.0,4.8,150.0,5.6,'11111222,11111222,11111222' 
TCOON,ioos:station:TCOON:031:1,2016-02-01T16:00:00Z,28.4073,-96.7122,0.0,3.9,152.0,5.0,'11111222,11111222,11111222' 
TCOON,ioos:station:TCOON:031:1,2016-02-01T16:06:00Z,28.4073,-96.7122,0.0,4.6,151.0,5.2,'11111222,11111222,11111222' 
TCOON,ioos:station:TCOON:031:1,2016-02-01T16:12:00Z,28.4073,-96.7122,0.0,4.1,152.0,5.3,'11111222,11111222,11111222' 
TCOON,ioos:station:TCOON:031:1,2016-02-01T16:18:00Z,28.4073,-96.7122,0.0,4.5,152.0,5.4,'11111222,11111222,11111222' 
TCOON,ioos:station:TCOON:031:1,2016-02-01T16:24:00Z,28.4073,-96.7122,0.0,4.3,151.0,5.1,'11111222,11111222,11111222' 
TCOON,ioos:station:TCOON:031:1,2016-02-01T16:30:00Z,28.4073,-96.7122,0.0,4.1,150.0,5.1,'11111222,11111222,11111222' 
TCOON,ioos:station:TCOON:031:1,2016-02-01T16:36:00Z,28.4073,-96.7122,0.0,4.5,152.0,5.8,'11111222,11111222,11111222' 
TCOON,ioos:station:TCOON:031:1,2016-02-01T16:42:00Z,28.4073,-96.7122,0.0,4.4,159.0,5.6,'11111222,11111222,11111222' 
TCOON,ioos:station:TCOON:031:1,2016-02-01T16:48:00Z,28.4073,-96.7122,0.0,4.4,159.0,5.6,'1111122,1111122,1111122' 
TCOON,ioos:station:TCOON:031:1,2016-02-01T16:54:00Z,28.4073,-96.7122,0.0,4.8,156.0,5.2,'11111222,11111222,11111222' 
TCOON,ioos:station:TCOON:031:1,2016-02-01T17:00:00Z,28.4073,-96.7122,0.0,4.5,163.0,5.3,'11111222,11111222,11111222' 
TCOON,ioos:station:TCOON:031:1,2016-02-01T17:06:00Z,28.4073,-96.7122,0.0,4.1,159.0,4.8,'11111222,11111222,11111222' 
TCOON,ioos:station:TCOON:031:1,2016-02-01T17:12:00Z,28.4073,-96.7122,0.0,4.4,156.0,5.1,'11111222,11111222,11111222' 
TCOON,ioos:station:TCOON:031:1,2016-02-01T17:18:00Z,28.4073,-96.7122,0.0,4.3,162.0,5.1,'11111222,11111222,11111222' 
TCOON,ioos:station:TCOON:031:1,2016-02-01T17:24:00Z,28.4073,-96.7122,0.0,4.1,165.0,4.9,'11111222,11111222,11111222' 
TCOON,ioos:station:TCOON:031:1,2016-02-01T17:30:00Z,28.4073,-96.7122,0.0,3.8,163.0,4.5,'11111222,11111222,11111222' 
TCOON,ioos:station:TCOON:031:1,2016-02-01T17:36:00Z,28.4073,-96.7122,0.0,3.8,165.0,4.3,'11111222,11111222,11111222' 
TCOON,ioos:station:TCOON:031:1,2016-02-01T17:42:00Z,28.4073,-96.7122,0.0,3.5,171.0,4.2,'11111222,11111222,11111222' 
TCOON,ioos:station:TCOON:031:1,2016-02-01T17:48:00Z,28.4073,-96.7122,0.0,3.5,171.0,4.2,'1111122,1111122,1111122' 
TCOON,ioos:station:TCOON:031:1,2016-02-01T17:54:00Z,28.4073,-96.7122,0.0,3.2,154.0,3.9,'11111222,11111222,11111222' 
TCOON,ioos:station:TCOON:031:1,2016-02-01T18:00:00Z,28.4073,-96.7122,0.0,3.8,157.0,4.1,'11111222,11111222,11111222' 
TCOON,ioos:station:TCOON:031:1,2016-02-01T18:06:00Z,28.4073,-96.7122,0.0,3.8,159.0,4.2,'11111222,11111222,11111222' 
TCOON,ioos:station:TCOON:031:1,2016-02-01T18:12:00Z,28.4073,-96.7122,0.0,4.1,158.0,4.5,'11111222,11111222,11111222' 
TCOON,ioos:station:TCOON:031:1,2016-02-01T18:18:00Z,28.4073,-96.7122,0.0,5.0,156.0,5.7,'11111222,11111222,11111222' 
TCOON,ioos:station:TCOON:031:1,2016-02-01T18:24:00Z,28.4073,-96.7122,0.0,5.6,156.0,6.4,'11111222,11111222,11111222' 
TCOON,ioos:station:TCOON:031:1,2016-02-01T18:30:00Z,28.4073,-96.7122,0.0,5.7,160.0,6.6,'11111222,11111222,11111222' 
TCOON,ioos:station:TCOON:031:1,2016-02-01T18:36:00Z,28.4073,-96.7122,0.0,5.6,158.0,6.5,'11111222,11111222,11111222' 
TCOON,ioos:station:TCOON:031:1,2016-02-01T18:42:00Z,28.4073,-96.7122,0.0,5.6,158.0,6.5,'1111122,1111122,1111122' 
TCOON,ioos:station:TCOON:031:1,2016-02-01T18:48:00Z,28.4073,-96.7122,0.0,5.3,159.0,6.1,'11111222,11111222,11111222' 
TCOON,ioos:station:TCOON:031:1,2016-02-01T18:54:00Z,28.4073,-96.7122,0.0,5.4,164.0,6.2,'11111222,11111222,11111222' 
TCOON,ioos:station:TCOON:031:1,2016-02-01T19:00:00Z,28.4073,-96.7122,0.0,4.9,162.0,6.0,'11111222,11111222,11111222' 
TCOON,ioos:station:TCOON:031:1,2016-02-01T19:06:00Z,28.4073,-96.7122,0.0,5.1,160.0,5.8,'11111222,11111222,11111222' 
TCOON,ioos:station:TCOON:031:1,2016-02-01T19:12:00Z,28.4073,-96.7122,0.0,4.8,159.0,5.5,'11111222,11111222,11111222' 
TCOON,ioos:station:TCOON:031:1,2016-02-01T19:18:00Z,28.4073,-96.7122,0.0,5.1,158.0,5.6,'11111222,11111222,11111222' 
TCOON,ioos:station:TCOON:031:1,2016-02-01T19:24:00Z,28.4073,-96.7122,0.0,4.9,155.0,5.3,'11111222,11111222,11111222' 
TCOON,ioos:station:TCOON:031:1,2016-02-01T19:30:00Z,28.4073,-96.7122,0.0,4.9,159.0,5.6,'11111222,11111222,11111222' 
TCOON,ioos:station:TCOON:031:1,2016-02-01T19:36:00Z,28.4073,-96.7122,0.0,4.9,159.0,5.6,'1111122,1111122,1111122' 
TCOON,ioos:station:TCOON:031:1,2016-02-01T19:42:00Z,28.4073,-96.7122,0.0,5.2,162.0,5.8,'11111222,11111222,11111222' 
TCOON,ioos:station:TCOON:031:1,2016-02-01T19:48:00Z,28.4073,-96.7122,0.0,4.7,162.0,5.7,'11111222,11111222,11111222' 
TCOON,ioos:station:TCOON:031:1,2016-02-01T19:54:00Z,28.4073,-96.7122,0.0,4.9,161.0,5.5,'11111222,11111222,11111222' 
TCOON,ioos:station:TCOON:031:1,2016-02-01T20:00:00Z,28.4073,-96.7122,0.0,4.9,162.0,5.7,'11111222,11111222,11111222' 
TCOON,ioos:station:TCOON:031:1,2016-02-01T20:06:00Z,28.4073,-96.7122,0.0,5.2,163.0,6.0,'11111222,11111222,11111222' 
TCOON,ioos:station:TCOON:031:1,2016-02-01T20:12:00Z,28.4073,-96.7122,0.0,4.8,163.0,6.0,'11111222,11111222,11111222' 
TCOON,ioos:station:TCOON:031:1,2016-02-01T20:18:00Z,28.4073,-96.7122,0.0,5.4,159.0,6.3,'11111222,11111222,11111222' 